Regional Weather Roundup
Issued by NWS Newport/Morehead, NC

Current Version | Previous Version | Graphics & Text | Print | Product List | Glossary Off
Versions: 1 2 3 4 5 6 7 8 9 10 11 12 13 14 15 16 17 18 19 20 21 22 23 24 25 26 27 28 29 30 31 32 33 34 35 36 37 38 39 40 41 42 43 44 45 46 47 48 49 50

345
ASUS42 KMHX 032225
RWRMHX
WEATHER ROUNDUP FOR EASTERN NORTH CAROLINA
NATIONAL WEATHER SERVICE NEWPORT/MOREHEAD CITY NC
600 PM EDT TUE MAY 03 2016

NOTE: "FAIR" INDICATES FEW OR NO CLOUDS BELOW 12,000 FEET
WITH NO SIGNIFICANT WEATHER AND/OR OBSTRUCTIONS TO VISIBILITY

NCZ015>017-031-032-045>047-102-103-032300-
NORTH COAST

CITY           SKY/WX    TMP DP  RH WIND       PRES   REMARKS
EDENTON        SUNNY     75  67  76 S9        29.75S
ELIZABETH CITY MOSUNNY   73  65  75 S9        29.74F
KITTY HAWK     MOCLDY    76  64  67 S8        29.75F
MANTEO         NOT AVBL

$$

NCZ045>047-081-094-103-104-032300-
CENTRAL COAST

CITY           SKY/WX    TMP DP  RH WIND       PRES   REMARKS
FRISCO         MOSUNNY   70  66  87 SW10      29.80S
SWANQUARTER    NOT AVBL

$$

NCZ095-097-098-100-101-032300-
SOUTHERN COAST

CITY           SKY/WX    TMP DP  RH WIND       PRES   REMARKS
BEAUFORT       MOSUNNY   71  66  84 S9        29.79F
CEDAR ISLAND   NOT AVBL
JACKSONVILLE   CLOUDY    72  66  81 S8        29.77S
PINEY ISLAND   NOT AVBL
WILMINGTON     CLOUDY    74  68  81 S5        29.77S


$$

NCZ011>013-027>030-043-044-078>080-089-090>093-098-032300-
COASTAL PLAIN

CITY           SKY/WX    TMP DP  RH WIND       PRES   REMARKS
AHOSKIE        SUNNY     74  65  73 S3        29.73S
CLINTON        CLOUDY    77  70  78 S5        29.74F
ELIZABETHTOWN  CLOUDY    75  69  80 S7        29.76S
GOLDSBORO      MOSUNNY   80  70  71 S9        29.72S
GREENVILLE     CLOUDY    77  66  69 SW5       29.77S
HAVELOCK       PTSUNNY   73  66  78 S12       29.78F
KENANSVILLE    MOSUNNY   76  67  72 CALM      29.76S
KINSTON        SUNNY     77  66  69 S8        29.75F
NEW BERN       CLOUDY    74  66  76 S10       29.77F
RICHLANDS      MOSUNNY   75  69  81 S9        29.76F
ROCKY MOUNT    SUNNY     76  66  71 SW8       29.72F
WASHINGTON     CLOUDY    75  65  71 S6        29.74S
WHITEVILLE     NOT AVBL

$$

AMZ130-135-150-152-154-156-158-170-250-252-270-ANZ085-086-088-633-658-670-032300-
MARINE OBSERVATIONS

STATION/POSITION TIME  TEMP    WIND        PRES    WAVE   SWELL
                       AIR SEA DIR/SP/G            HT/PER HT/PER
                 (UTC) (F)     (DEG/KT/KT) (MB)    (FT/S) (FT/S)
CHESAPEAKE LIGHT 2200   63     170/ 15/ 16 1007.6
64 E VA BEACH    2150   58 55  170/ 10/ 12 1007.6    5/ 7   5/ 7
DUCK             NOT AVBL
2 E DUCK         2111      59                N/A     2/ 9
OREGON INLET     2200   69 71              1007.9
13E OREGON INLT  2200      62                N/A     4/ 8   2/ 8
HATTERAS CG      2200   70 69              1008.7
DIAMOND BUOY     2150   73 72  200/ 19/ 23 1008.5    4/ 8   2/ 8
CAPE LOOKOUT     2200   69     170/ 11/ 12 1008.4
BEAUFORT LAB     2200   70 67              1007.9
30 SE NEW RVR IN 2125      71                N/A     5/ 7
27 SE WRIGHTSVLE 2208   74 73  210/  8/ 12   N/A
5 SE WRIGHTSVLE  2108   71 70  190/ 10/ 14 1008.8
225 S CAPE HAT   2150   67 74   20/  4/  6 1013.1    4/ 6   3/ 6
41 SE CHARLESTON 2150   75 75  210/ 16/ 17 1008.0    4/ 8   3/ 8

$$




USA.gov is the U.S. government's official web portal to all federal, state and local government web resources and services.